[[{"header":{"parameterUnit":"m.s-1","parameterCategory":1,"la1":30.2992,"la2":30.254,"lo1":-89.0895,"lo2":-89.0443,"dy":0.0025,"dx":0.0025,"nx":19,"ny":19,"refTime":"2026-05-01T21:00:00:Z","depth":0,"parameterNumber":2,"parameterNumberName":"U-component_of_WINDS"},"data":[0,0,0,-0.6799,-0.6803,-0.6991,-0.6992,-0.724,-0.7242,0,0,0,0,0,0,0,0,0,0,0,-0.6745,-0.6747,-0.6798,-0.6803,-0.6991,-0.6992,-0.724,-0.7242,0,0,0,0,0,0,0,0,0,0,0,-0.6744,-0.6747,-0.6749,-0.6804,-0.6991,-0.6992,-0.7239,-0.7095,0,0,0,0,0,0,0,0,0,0,-0.6911,-0.6864,-0.6746,-0.6749,-0.6805,-0.6991,-0.6992,-0.7088,-0.7104,-0.7157,0,-0.7203,0,-0.7226,-0.7259,-0.726,0,0,0,-0.6802,-0.685,-0.6898,-0.6749,-0.6807,-0.699,-0.6906,-0.7097,-0.7115,-0.7178,-0.7207,-0.7216,-0.723,-0.7261,-0.7262,-0.7567,-0.7569,0,0,-0.6792,-0.6781,-0.6886,-0.691,-0.6879,-0.69,-0.6912,-0.7108,-0.7139,-0.7207,-0.7221,-0.7235,-0.7262,-0.7264,-0.7566,-0.7568,0,0,0,-0.6763,-0.6774,-0.6817,-0.69,-0.6933,-0.6905,-0.6919,-0.713,-0.7145,-0.7224,-0.7237,-0.7264,-0.7267,-0.7564,-0.7567,-0.7631,0,0,0,-0.6756,-0.6757,-0.6813,-0.6808,-0.693,-0.7034,-0.6937,-0.7131,-0.7154,-0.7236,-0.7264,-0.7269,-0.7563,-0.7566,-0.7626,-0.7665,0,0,0,-0.6732,-0.6754,-0.6782,-0.6807,-0.6887,-0.7031,-0.7057,-0.7136,-0.7162,-0.726,-0.727,-0.7562,-0.7565,-0.7621,-0.7657,-0.7744,0,0,0,-0.6704,-0.6836,-0.6782,-0.6935,-0.6886,-0.7067,-0.7056,-0.7192,-0.7283,-0.7265,-0.7563,-0.7566,-0.7619,-0.7652,-0.7739,-0.7819,-0.7849,0,0,-0.6865,-0.6855,-0.6946,-0.6903,-0.7091,-0.7039,-0.7238,-0.7332,-0.7352,-0.7495,-0.7503,-0.7627,-0.7657,-0.7743,-0.8019,-0.8043,0,0,0,-0.6993,-0.7059,-0.7111,-0.7196,-0.7269,-0.7337,-0.7401,-0.7437,-0.7558,-0.7422,-0.768,-0.7698,-0.775,-0.7789,-0.7809,-0.7856,-0.7582,-0.7582,-0.7582,-0.7209,-0.7225,-0.7377,-0.7415,-0.7498,-0.7562,-0.7633,-0.7691,-0.7684,-0.7744,-0.7789,-0.7954,-0.7998,-0.8014,-0.8062,-0.7828,-0.7828,-0.7828,-0.7829,-0.745,-0.7547,-0.7531,-0.7673,-0.769,-0.781,-0.7877,-0.7867,-0.7983,-0.7921,-0.7968,-0.7903,-0.804,-0.8084,-0.7834,-0.7833,-0.7832,-0.7832,-0.7831,-0.7597,-0.7647,-0.7684,-0.7809,-0.7904,-0.7938,-0.805,-0.806,-0.8071,-0.8116,-0.8166,-0.8165,-0.8169,-0.8138,-0.8138,-0.8139,-0.8139,-0.814,-0.814,-0.7737,-0.7777,-0.787,-0.7957,-0.8013,-0.8089,-0.8153,-0.821,-0.8275,-0.8274,-0.8275,-0.8264,-0.8048,-0.7997,-0.8149,-0.8148,-0.8147,-0.8146,-0.8145,-0.7984,-0.7929,-0.8071,-0.8128,-0.8232,-0.8326,-0.8335,-0.845,-0.8497,-0.8553,-0.853,-0.8367,-0.836,-0.8343,-0.8301,-0.8523,-0.8523,-0.8523,-0.8523,-0.8112,-0.8106,-0.8255,-0.8344,-0.8432,-0.8455,-0.8618,-0.8669,-0.8713,-0.8744,-0.8712,-0.8655,-0.8637,-0.864,-0.8617,-0.8579,-0.8866,-0.8867,-0.8867,-0.8266,-0.8269,-0.8407,-0.8446,-0.8528,-0.8598,-0.8753,-0.8858,-0.8896,-0.8881,-0.877,-0.8755,-0.8663,-0.8631,-0.862,-0.8584,-0.8512,0,0]},{"header":{"parameterUnit":"m.s-1","parameterCategory":1,"la1":30.2992,"la2":30.254,"lo1":-89.0895,"lo2":-89.0443,"dy":0.0025,"dx":0.0025,"nx":19,"ny":19,"refTime":"2026-05-01T21:00:00:Z","depth":0,"parameterNumber":3,"parameterNumberName":"V-component_of_WINDS"},"data":[0,0,0,-6.3931,-6.3939,-6.4271,-6.4272,-6.4718,-6.4722,0,0,0,0,0,0,0,0,0,0,0,-6.3847,-6.3851,-6.3931,-6.394,-6.4271,-6.4272,-6.4717,-6.4722,0,0,0,0,0,0,0,0,0,0,0,-6.3846,-6.385,-6.3854,-6.3941,-6.4271,-6.4272,-6.4716,-6.4458,0,0,0,0,0,0,0,0,0,0,-6.4132,-6.4069,-6.3849,-6.3855,-6.3943,-6.427,-6.4272,-6.4445,-6.4474,-6.4577,0,-6.4674,0,-6.4705,-6.4754,-6.4755,0,0,0,-6.3929,-6.4045,-6.4121,-6.3855,-6.3946,-6.427,-6.4118,-6.4461,-6.4494,-6.4616,-6.468,-6.4696,-6.4713,-6.4757,-6.4759,-6.5393,-6.5396,0,0,-6.391,-6.3915,-6.4099,-6.4143,-6.4095,-6.4108,-6.4129,-6.4481,-6.4551,-6.4682,-6.4706,-6.472,-6.476,-6.4763,-6.539,-6.5394,0,0,0,-6.3865,-6.3903,-6.397,-6.4126,-6.4184,-6.4118,-6.4142,-6.4535,-6.4556,-6.4711,-6.4725,-6.4762,-6.4768,-6.5386,-6.5391,-6.557,0,0,0,-6.3853,-6.3876,-6.3962,-6.3968,-6.4178,-6.4364,-6.4189,-6.4532,-6.4572,-6.4723,-6.4763,-6.4773,-6.5382,-6.5389,-6.5556,-6.5654,0,0,0,-6.3821,-6.3872,-6.3925,-6.3968,-6.4111,-6.4358,-6.44,-6.4541,-6.4582,-6.4756,-6.4774,-6.538,-6.5388,-6.5545,-6.5635,-6.5824,0,0,0,-6.3787,-6.4078,-6.3928,-6.4257,-6.4108,-6.4465,-6.4397,-6.4663,-6.4833,-6.4765,-6.5383,-6.5391,-6.5541,-6.5623,-6.5811,-6.5986,-6.6059,0,0,-6.4156,-6.4122,-6.4316,-6.4191,-6.4577,-6.4414,-6.4825,-6.4976,-6.4988,-6.5257,-6.5272,-6.5561,-6.5633,-6.5821,-6.6458,-6.6516,0,0,0,-6.4434,-6.4574,-6.4675,-6.4838,-6.496,-6.5074,-6.5161,-6.5217,-6.5445,-6.5127,-6.5678,-6.5721,-6.5831,-6.5915,-6.5964,-6.6059,-6.5429,-6.5428,-6.5427,-6.4965,-6.4964,-6.5285,-6.5325,-6.5483,-6.557,-6.5698,-6.5788,-6.574,-6.587,-6.5952,-6.6338,-6.6436,-6.6473,-6.6572,-6.6041,-6.6042,-6.6042,-6.6043,-6.5508,-6.5706,-6.5635,-6.5921,-6.5918,-6.6158,-6.6252,-6.621,-6.6432,-6.6277,-6.6374,-6.6207,-6.6536,-6.6623,-6.6056,-6.6054,-6.6052,-6.6051,-6.605,-6.5858,-6.5953,-6.6016,-6.6251,-6.6432,-6.646,-6.6677,-6.6665,-6.6656,-6.6751,-6.6837,-6.6834,-6.6832,-6.6792,-6.6794,-6.6795,-6.6796,-6.6797,-6.6798,-6.6199,-6.6263,-6.6449,-6.6602,-6.6705,-6.6839,-6.6927,-6.7028,-6.7136,-6.7111,-6.7111,-6.7052,-6.6567,-6.6448,-6.6819,-6.6815,-6.6812,-6.681,-6.6809,-6.6755,-6.6627,-6.6914,-6.7017,-6.7196,-6.7377,-6.7357,-6.7563,-6.7644,-6.7752,-6.767,-6.7313,-6.7278,-6.7239,-6.714,-6.7668,-6.7668,-6.7668,-6.7668,-6.7054,-6.7033,-6.7324,-6.7489,-6.765,-6.7661,-6.7985,-6.8055,-6.8108,-6.8158,-6.8079,-6.7945,-6.7906,-6.7894,-6.7841,-6.7748,-6.842,-6.842,-6.8421,-6.7397,-6.7391,-6.767,-6.7721,-6.7859,-6.7978,-6.8282,-6.8474,-6.8507,-6.8451,-6.8198,-6.8166,-6.795,-6.7879,-6.7822,-6.774,-6.757,0,0]}]]